Year,Month,Day,Hour,Minute,Value (Times are PST for temperature in C)
2006,10,23,00,00,8.20
2006,10,23,00,01,8.20
2006,10,23,00,02,8.20
2006,10,23,00,03,8.20
2006,10,23,00,04,8.20
2006,10,23,00,05,8.20
2006,10,23,00,06,8.20
2006,10,23,00,07,8.20
2006,10,23,00,08,8.20
2006,10,23,00,09,8.20
2006,10,23,00,10,8.20
2006,10,23,00,11,8.20
2006,10,23,00,12,8.30
2006,10,23,00,13,8.30
2006,10,23,00,14,8.30
2006,10,23,00,15,8.30
2006,10,23,00,16,8.30
2006,10,23,00,17,8.40
2006,10,23,00,18,8.40
2006,10,23,00,19,8.40
2006,10,23,00,20,8.30
2006,10,23,00,21,8.30
2006,10,23,00,22,8.30
2006,10,23,00,23,8.30
2006,10,23,00,24,8.30
2006,10,23,00,25,8.30
2006,10,23,00,26,8.30
2006,10,23,00,27,8.30
2006,10,23,00,28,8.20
2006,10,23,00,29,8.20
2006,10,23,00,30,8.20
2006,10,23,00,31,8.20
2006,10,23,00,32,8.10
2006,10,23,00,33,8.10
2006,10,23,00,34,8.00
2006,10,23,00,35,8.00
2006,10,23,00,36,8.00
2006,10,23,00,37,8.00
2006,10,23,00,38,8.00
2006,10,23,00,39,8.00
2006,10,23,00,40,8.00
2006,10,23,00,41,8.10
2006,10,23,00,42,8.10
2006,10,23,00,43,8.10
2006,10,23,00,44,8.10
2006,10,23,00,45,8.10
2006,10,23,00,46,8.10
2006,10,23,00,47,8.10
2006,10,23,00,48,8.10
2006,10,23,00,49,8.10
2006,10,23,00,50,8.10
2006,10,23,00,51,8.10
2006,10,23,00,52,8.10
2006,10,23,00,53,8.10
2006,10,23,00,54,8.10
2006,10,23,00,55,8.10
2006,10,23,00,56,8.10
2006,10,23,00,57,8.10
2006,10,23,00,58,8.10
2006,10,23,00,59,8.10
2006,10,23,01,00,8.10
2006,10,23,01,01,8.00
2006,10,23,01,02,8.00
2006,10,23,01,03,8.00
2006,10,23,01,04,8.00
2006,10,23,01,05,8.00
2006,10,23,01,06,8.00
2006,10,23,01,07,8.10
2006,10,23,01,08,8.10
2006,10,23,01,09,8.10
2006,10,23,01,10,8.10
2006,10,23,01,11,8.00
2006,10,23,01,12,8.00
2006,10,23,01,13,8.00
2006,10,23,01,14,8.00
2006,10,23,01,15,8.00
2006,10,23,01,16,8.00
2006,10,23,01,17,8.00
2006,10,23,01,18,8.00
2006,10,23,01,19,8.00
2006,10,23,01,20,8.00
2006,10,23,01,21,8.00
2006,10,23,01,22,8.00
2006,10,23,01,23,8.00
2006,10,23,01,24,8.00
2006,10,23,01,25,8.00
2006,10,23,01,26,8.00
2006,10,23,01,27,7.90
2006,10,23,01,28,7.90
2006,10,23,01,29,7.90
2006,10,23,01,30,7.90
2006,10,23,01,31,7.80
2006,10,23,01,32,7.80
2006,10,23,01,33,7.80
2006,10,23,01,34,7.80
2006,10,23,01,35,7.80
2006,10,23,01,36,7.80
2006,10,23,01,37,7.80
2006,10,23,01,38,7.80
2006,10,23,01,39,7.90
2006,10,23,01,40,7.90
2006,10,23,01,41,7.90
2006,10,23,01,42,7.90
2006,10,23,01,43,7.90
2006,10,23,01,44,7.90
2006,10,23,01,45,7.90
2006,10,23,01,46,7.90
2006,10,23,01,47,7.90
2006,10,23,01,48,7.90
2006,10,23,01,49,7.90
2006,10,23,01,50,7.90
2006,10,23,01,51,7.90
2006,10,23,01,52,7.90
2006,10,23,01,53,7.90
2006,10,23,01,54,7.80
2006,10,23,01,55,7.80
2006,10,23,01,56,7.80
2006,10,23,01,57,7.80
2006,10,23,01,58,7.80
2006,10,23,01,59,7.80
2006,10,23,02,00,7.80
2006,10,23,02,01,7.70
2006,10,23,02,02,7.70
2006,10,23,02,03,7.60
2006,10,23,02,04,7.60
2006,10,23,02,05,7.60
2006,10,23,02,06,7.60
2006,10,23,02,07,7.60
2006,10,23,02,08,7.60
2006,10,23,02,09,7.50
2006,10,23,02,10,7.50
2006,10,23,02,11,7.50
2006,10,23,02,12,7.50
2006,10,23,02,13,7.50
2006,10,23,02,14,7.50
2006,10,23,02,15,7.50
2006,10,23,02,16,7.50
2006,10,23,02,17,7.60
2006,10,23,02,18,7.60
2006,10,23,02,19,7.60
2006,10,23,02,20,7.60
2006,10,23,02,21,7.60
2006,10,23,02,22,7.70
2006,10,23,02,23,7.70
2006,10,23,02,24,7.70
2006,10,23,02,25,7.70
2006,10,23,02,26,7.70
2006,10,23,02,27,7.60
2006,10,23,02,28,7.60
2006,10,23,02,29,7.60
2006,10,23,02,30,7.60
2006,10,23,02,31,7.50
2006,10,23,02,32,7.50
2006,10,23,02,33,7.50
2006,10,23,02,34,7.50
2006,10,23,02,35,7.50
2006,10,23,02,36,7.50
2006,10,23,02,37,7.50
2006,10,23,02,38,7.40
2006,10,23,02,39,7.40
2006,10,23,02,40,7.30
2006,10,23,02,41,7.20
2006,10,23,02,42,7.10
2006,10,23,02,43,7.10
2006,10,23,02,44,7.00
2006,10,23,02,45,7.10
2006,10,23,02,46,7.10
2006,10,23,02,47,7.20
2006,10,23,02,48,7.20
2006,10,23,02,49,7.30
2006,10,23,02,50,7.30
2006,10,23,02,51,7.30
2006,10,23,02,52,7.30
2006,10,23,02,53,7.30
2006,10,23,02,54,7.30
2006,10,23,02,55,7.30
2006,10,23,02,56,7.20
2006,10,23,02,57,7.20
2006,10,23,02,58,7.20
2006,10,23,02,59,7.20
2006,10,23,03,00,7.20
2006,10,23,03,01,7.20
2006,10,23,03,02,7.10
2006,10,23,03,03,7.10
2006,10,23,03,04,7.10
2006,10,23,03,05,7.20
2006,10,23,03,06,7.20
2006,10,23,03,07,7.30
2006,10,23,03,08,7.30
2006,10,23,03,09,7.30
2006,10,23,03,10,7.40
2006,10,23,03,11,7.40
2006,10,23,03,12,7.40
2006,10,23,03,13,7.40
2006,10,23,03,14,7.40
2006,10,23,03,15,7.40
2006,10,23,03,16,7.40
2006,10,23,03,17,7.40
2006,10,23,03,18,7.40
2006,10,23,03,19,7.40
2006,10,23,03,20,7.50
2006,10,23,03,21,7.50
2006,10,23,03,22,7.50
2006,10,23,03,23,7.50
2006,10,23,03,24,7.50
2006,10,23,03,25,7.50
2006,10,23,03,26,7.50
2006,10,23,03,27,7.50
2006,10,23,03,28,7.40
2006,10,23,03,29,7.30
2006,10,23,03,30,7.20
2006,10,23,03,31,7.10
2006,10,23,03,32,7.10
2006,10,23,03,33,7.00
2006,10,23,03,34,7.00
2006,10,23,03,35,6.90
2006,10,23,03,36,6.80
2006,10,23,03,37,6.80
2006,10,23,03,38,6.80
2006,10,23,03,39,6.70
2006,10,23,03,40,6.70
2006,10,23,03,41,6.70
2006,10,23,03,42,6.70
2006,10,23,03,43,6.70
2006,10,23,03,44,6.70
2006,10,23,03,45,6.70
2006,10,23,03,46,6.80
2006,10,23,03,47,6.80
2006,10,23,03,48,6.80
2006,10,23,03,49,6.80
2006,10,23,03,50,6.80
2006,10,23,03,51,6.80
2006,10,23,03,52,6.80
2006,10,23,03,53,6.80
2006,10,23,03,54,6.80
2006,10,23,03,55,6.90
2006,10,23,03,56,6.90
2006,10,23,03,57,6.90
2006,10,23,03,58,6.90
2006,10,23,03,59,6.90
2006,10,23,04,00,6.90
2006,10,23,04,01,7.00
2006,10,23,04,02,7.00
2006,10,23,04,03,7.00
2006,10,23,04,04,7.00
2006,10,23,04,05,7.00
2006,10,23,04,06,6.90
2006,10,23,04,07,6.90
2006,10,23,04,08,6.80
2006,10,23,04,09,6.80
2006,10,23,04,10,6.80
2006,10,23,04,11,6.80
2006,10,23,04,12,6.80
2006,10,23,04,13,6.70
2006,10,23,04,14,6.60
2006,10,23,04,15,6.60
2006,10,23,04,16,6.60
2006,10,23,04,17,6.70
2006,10,23,04,18,6.70
2006,10,23,04,19,6.80
2006,10,23,04,20,6.80
2006,10,23,04,21,6.80
2006,10,23,04,22,6.80
2006,10,23,04,23,6.90
2006,10,23,04,24,6.90
2006,10,23,04,25,6.90
2006,10,23,04,26,6.90
2006,10,23,04,27,6.90
2006,10,23,04,28,6.90
2006,10,23,04,29,6.90
2006,10,23,04,30,6.90
2006,10,23,04,31,6.90
2006,10,23,04,32,6.90
2006,10,23,04,33,6.90
2006,10,23,04,34,6.80
2006,10,23,04,35,6.80
2006,10,23,04,36,6.80
2006,10,23,04,37,6.80
2006,10,23,04,38,6.90
2006,10,23,04,39,6.90
2006,10,23,04,40,6.90
2006,10,23,04,41,6.90
2006,10,23,04,42,6.90
2006,10,23,04,43,6.90
2006,10,23,04,44,6.90
2006,10,23,04,45,6.90
2006,10,23,04,46,6.80
2006,10,23,04,47,6.80
2006,10,23,04,48,6.80
2006,10,23,04,49,6.80
2006,10,23,04,50,6.80
2006,10,23,04,51,6.80
2006,10,23,04,52,6.80
2006,10,23,04,53,6.80
2006,10,23,04,54,6.80
2006,10,23,04,55,6.80
2006,10,23,04,56,6.70
2006,10,23,04,57,6.70
2006,10,23,04,58,6.70
2006,10,23,04,59,6.70
2006,10,23,05,00,6.60
2006,10,23,05,01,6.60
2006,10,23,05,02,6.60
2006,10,23,05,03,6.60
2006,10,23,05,04,6.60
2006,10,23,05,05,6.50
2006,10,23,05,06,6.40
2006,10,23,05,07,6.40
2006,10,23,05,08,6.40
2006,10,23,05,09,6.40
2006,10,23,05,10,6.40
2006,10,23,05,11,6.40
2006,10,23,05,12,6.40
2006,10,23,05,13,6.40
2006,10,23,05,14,6.40
2006,10,23,05,15,6.40
2006,10,23,05,16,6.40
2006,10,23,05,17,6.40
2006,10,23,05,18,6.40
2006,10,23,05,19,6.40
2006,10,23,05,20,6.40
2006,10,23,05,21,6.40
2006,10,23,05,22,6.40
2006,10,23,05,23,6.40
2006,10,23,05,24,6.40
2006,10,23,05,25,6.40
2006,10,23,05,26,6.40
2006,10,23,05,27,6.40
2006,10,23,05,28,6.30
2006,10,23,05,29,6.30
2006,10,23,05,30,6.30
2006,10,23,05,31,6.30
2006,10,23,05,32,6.20
2006,10,23,05,33,6.20
2006,10,23,05,34,6.20
2006,10,23,05,35,6.20
2006,10,23,05,36,6.20
2006,10,23,05,37,6.20
2006,10,23,05,38,6.20
2006,10,23,05,39,6.20
2006,10,23,05,40,6.20
2006,10,23,05,41,6.20
2006,10,23,05,42,6.20
2006,10,23,05,43,6.20
2006,10,23,05,44,6.20
2006,10,23,05,45,6.20
2006,10,23,05,46,6.20
2006,10,23,05,47,6.20
2006,10,23,05,48,6.20
2006,10,23,05,49,6.20
2006,10,23,05,50,6.20
2006,10,23,05,51,6.20
2006,10,23,05,52,6.30
2006,10,23,05,53,6.30
2006,10,23,05,54,6.30
2006,10,23,05,55,6.30
2006,10,23,05,56,6.30
2006,10,23,05,57,6.30
2006,10,23,05,58,6.30
2006,10,23,05,59,6.20
2006,10,23,06,00,6.20
2006,10,23,06,01,6.20
2006,10,23,06,02,6.20
2006,10,23,06,03,6.20
2006,10,23,06,04,6.20
2006,10,23,06,05,6.20
2006,10,23,06,06,6.20
2006,10,23,06,07,6.20
2006,10,23,06,08,6.20
2006,10,23,06,09,6.20
2006,10,23,06,10,6.20
2006,10,23,06,11,6.20
2006,10,23,06,12,6.20
2006,10,23,06,13,6.20
2006,10,23,06,14,6.20
2006,10,23,06,15,6.20
2006,10,23,06,16,6.20
2006,10,23,06,17,6.20
2006,10,23,06,18,6.20
2006,10,23,06,19,6.20
2006,10,23,06,20,6.20
2006,10,23,06,21,6.20
2006,10,23,06,22,6.20
2006,10,23,06,23,6.20
2006,10,23,06,24,6.20
2006,10,23,06,25,6.20
2006,10,23,06,26,6.20
2006,10,23,06,27,6.20
2006,10,23,06,28,6.20
2006,10,23,06,29,6.20
2006,10,23,06,30,6.20
2006,10,23,06,31,6.20
2006,10,23,06,32,6.20
2006,10,23,06,33,6.20
2006,10,23,06,34,6.20
2006,10,23,06,35,6.20
2006,10,23,06,36,6.20
2006,10,23,06,37,6.20
2006,10,23,06,38,6.20
2006,10,23,06,39,6.20
2006,10,23,06,40,6.20
2006,10,23,06,41,6.20
2006,10,23,06,42,6.20
2006,10,23,06,43,6.10
2006,10,23,06,44,6.10
2006,10,23,06,45,6.10
2006,10,23,06,46,6.10
2006,10,23,06,47,6.10
2006,10,23,06,48,6.10
2006,10,23,06,49,6.10
2006,10,23,06,50,6.10
2006,10,23,06,51,6.10
2006,10,23,06,52,6.10
2006,10,23,06,53,6.10
2006,10,23,06,54,6.10
2006,10,23,06,55,6.10
2006,10,23,06,56,6.00
2006,10,23,06,57,6.00
2006,10,23,06,58,6.00
2006,10,23,06,59,6.00
2006,10,23,07,00,6.00
2006,10,23,07,01,6.00
2006,10,23,07,02,6.00
2006,10,23,07,03,6.00
2006,10,23,07,04,6.00
2006,10,23,07,05,5.90
2006,10,23,07,06,6.00
2006,10,23,07,07,6.00
2006,10,23,07,08,6.00
2006,10,23,07,09,6.00
2006,10,23,07,10,6.00
2006,10,23,07,11,6.00
2006,10,23,07,12,5.90
2006,10,23,07,13,5.90
2006,10,23,07,14,5.90
2006,10,23,07,15,5.90
2006,10,23,07,16,5.90
2006,10,23,07,17,5.80
2006,10,23,07,18,5.80
2006,10,23,07,19,5.80
2006,10,23,07,20,5.80
2006,10,23,07,21,5.80
2006,10,23,07,22,5.80
2006,10,23,07,23,5.80
2006,10,23,07,24,5.80
2006,10,23,07,25,5.80
2006,10,23,07,26,5.80
2006,10,23,07,27,5.70
2006,10,23,07,28,5.70
2006,10,23,07,29,5.70
2006,10,23,07,30,5.70
2006,10,23,07,31,5.70
2006,10,23,07,32,5.70
2006,10,23,07,33,5.70
2006,10,23,07,34,5.70
2006,10,23,07,35,5.70
2006,10,23,07,36,5.70
2006,10,23,07,37,5.70
2006,10,23,07,38,5.70
2006,10,23,07,39,5.70
2006,10,23,07,40,5.70
2006,10,23,07,41,5.70
2006,10,23,07,42,5.70
2006,10,23,07,43,5.70
2006,10,23,07,44,5.70
2006,10,23,07,45,5.70
2006,10,23,07,46,5.70
2006,10,23,07,47,5.70
2006,10,23,07,48,5.70
2006,10,23,07,49,5.70
2006,10,23,07,50,5.70
2006,10,23,07,51,5.70
2006,10,23,07,52,5.70
2006,10,23,07,53,5.70
2006,10,23,07,54,5.70
2006,10,23,07,55,5.70
2006,10,23,07,56,5.70
2006,10,23,07,57,5.70
2006,10,23,07,58,5.70
2006,10,23,07,59,5.70
2006,10,23,08,00,5.70
2006,10,23,08,01,5.70
2006,10,23,08,02,5.70
2006,10,23,08,03,5.70
2006,10,23,08,04,5.60
2006,10,23,08,05,5.60
2006,10,23,08,06,5.50
2006,10,23,08,07,5.50
2006,10,23,08,08,5.50
2006,10,23,08,09,5.50
2006,10,23,08,10,5.50
2006,10,23,08,11,5.50
2006,10,23,08,12,5.50
2006,10,23,08,13,5.60
2006,10,23,08,14,5.60
2006,10,23,08,15,5.60
2006,10,23,08,16,5.60
2006,10,23,08,17,5.60
2006,10,23,08,18,5.60
2006,10,23,08,19,5.60
2006,10,23,08,20,5.60
2006,10,23,08,21,5.60
2006,10,23,08,22,5.60
2006,10,23,08,23,5.60
2006,10,23,08,24,5.60
2006,10,23,08,25,5.60
2006,10,23,08,26,5.60
2006,10,23,08,27,5.60
2006,10,23,08,28,5.60
2006,10,23,08,29,5.60
2006,10,23,08,30,5.60
2006,10,23,08,31,5.60
2006,10,23,08,32,5.60
2006,10,23,08,33,5.60
2006,10,23,08,34,5.70
2006,10,23,08,35,5.70
2006,10,23,08,36,5.70
2006,10,23,08,37,5.70
2006,10,23,08,38,5.70
2006,10,23,08,39,5.70
2006,10,23,08,40,5.70
2006,10,23,08,41,5.70
2006,10,23,08,42,5.70
2006,10,23,08,43,5.70
2006,10,23,08,44,5.70
2006,10,23,08,45,5.70
2006,10,23,08,46,5.80
2006,10,23,08,47,5.80
2006,10,23,08,48,5.80
2006,10,23,08,49,5.90
2006,10,23,08,50,5.90
2006,10,23,08,51,5.90
2006,10,23,08,52,5.90
2006,10,23,08,53,5.90
2006,10,23,08,54,5.90
2006,10,23,08,55,6.00
2006,10,23,08,56,6.00
2006,10,23,08,57,6.00
2006,10,23,08,58,6.00
2006,10,23,08,59,6.00
2006,10,23,09,00,6.00
2006,10,23,09,01,6.00
2006,10,23,09,02,6.10
2006,10,23,09,03,6.10
2006,10,23,09,04,6.10
2006,10,23,09,05,6.20
2006,10,23,09,06,6.20
2006,10,23,09,07,6.20
2006,10,23,09,08,6.20
2006,10,23,09,09,6.30
2006,10,23,09,10,6.30
2006,10,23,09,11,6.40
2006,10,23,09,12,6.40
2006,10,23,09,13,6.40
2006,10,23,09,14,6.50
2006,10,23,09,15,6.60
2006,10,23,09,16,6.60
2006,10,23,09,17,6.60
2006,10,23,09,18,6.60
2006,10,23,09,19,6.70
2006,10,23,09,20,6.70
2006,10,23,09,21,6.80
2006,10,23,09,22,6.80
2006,10,23,09,23,6.80
2006,10,23,09,24,6.80
2006,10,23,09,25,6.90
2006,10,23,09,26,7.00
2006,10,23,09,27,7.00
2006,10,23,09,28,7.00
2006,10,23,09,29,7.10
2006,10,23,09,30,7.10
2006,10,23,09,31,7.20
2006,10,23,09,32,7.20
2006,10,23,09,33,7.30
2006,10,23,09,34,7.30
2006,10,23,09,35,7.30
2006,10,23,09,36,7.40
2006,10,23,09,37,7.40
2006,10,23,09,38,7.40
2006,10,23,09,39,7.30
2006,10,23,09,40,7.30
2006,10,23,09,41,7.40
2006,10,23,09,42,7.40
2006,10,23,09,43,7.40
2006,10,23,09,44,7.50
2006,10,23,09,45,7.50
2006,10,23,09,46,7.50
2006,10,23,09,47,7.60
2006,10,23,09,48,7.60
2006,10,23,09,49,7.60
2006,10,23,09,50,7.70
2006,10,23,09,51,7.70
2006,10,23,09,52,7.70
2006,10,23,09,53,7.70
2006,10,23,09,54,7.70
2006,10,23,09,55,7.70
2006,10,23,09,56,7.80
2006,10,23,09,57,7.80
2006,10,23,09,58,7.80
2006,10,23,09,59,7.80
2006,10,23,10,00,7.90
2006,10,23,10,01,7.90
2006,10,23,10,02,8.00
2006,10,23,10,03,8.00
2006,10,23,10,04,8.00
2006,10,23,10,05,8.00
2006,10,23,10,06,8.00
2006,10,23,10,07,8.00
2006,10,23,10,08,8.00
2006,10,23,10,09,8.00
2006,10,23,10,10,8.00
2006,10,23,10,11,8.00
2006,10,23,10,12,8.10
2006,10,23,10,13,8.10
2006,10,23,10,14,8.20
2006,10,23,10,15,8.20
2006,10,23,10,16,8.20
2006,10,23,10,17,8.20
2006,10,23,10,18,8.20
2006,10,23,10,19,8.20
2006,10,23,10,20,8.30
2006,10,23,10,21,8.30
2006,10,23,10,22,8.40
2006,10,23,10,23,8.50
2006,10,23,10,24,8.50
2006,10,23,10,25,8.50
2006,10,23,10,26,8.50
2006,10,23,10,27,8.60
2006,10,23,10,28,8.60
2006,10,23,10,29,8.60
2006,10,23,10,30,8.70
2006,10,23,10,31,8.70
2006,10,23,10,32,8.70
2006,10,23,10,33,8.70
2006,10,23,10,34,8.70
2006,10,23,10,35,8.70
2006,10,23,10,36,8.80
2006,10,23,10,37,8.80
2006,10,23,10,38,8.80
2006,10,23,10,39,8.80
2006,10,23,10,40,8.90
2006,10,23,10,41,8.90
2006,10,23,10,42,8.90
2006,10,23,10,43,8.90
2006,10,23,10,44,8.90
2006,10,23,10,45,8.80
2006,10,23,10,46,8.90
2006,10,23,10,47,8.90
2006,10,23,10,48,8.90
2006,10,23,10,49,8.80
2006,10,23,10,50,8.80
2006,10,23,10,51,8.80
2006,10,23,10,52,8.80
2006,10,23,10,53,8.80
2006,10,23,10,54,8.80
2006,10,23,10,55,8.80
2006,10,23,10,56,8.90
2006,10,23,10,57,8.90
2006,10,23,10,58,8.90
2006,10,23,10,59,8.90
2006,10,23,11,00,8.90
2006,10,23,11,01,9.00
2006,10,23,11,02,9.00
2006,10,23,11,03,9.00
2006,10,23,11,04,9.10
2006,10,23,11,05,9.10
2006,10,23,11,06,9.20
2006,10,23,11,07,9.20
2006,10,23,11,08,9.20
2006,10,23,11,09,9.30
2006,10,23,11,10,9.30
2006,10,23,11,11,9.40
2006,10,23,11,12,9.40
2006,10,23,11,13,9.50
2006,10,23,11,14,9.50
2006,10,23,11,15,9.50
2006,10,23,11,16,9.50
2006,10,23,11,17,9.50
2006,10,23,11,18,9.60
2006,10,23,11,19,9.60
2006,10,23,11,20,9.60
2006,10,23,11,21,9.70
2006,10,23,11,22,9.70
2006,10,23,11,23,9.70
2006,10,23,11,24,9.70
2006,10,23,11,25,9.70
2006,10,23,11,26,9.80
2006,10,23,11,27,9.80
2006,10,23,11,28,9.90
2006,10,23,11,29,9.90
2006,10,23,11,30,9.90
2006,10,23,11,31,9.90
2006,10,23,11,32,9.90
2006,10,23,11,33,9.90
2006,10,23,11,34,9.90
2006,10,23,11,35,10.00
2006,10,23,11,36,10.10
2006,10,23,11,37,10.10
2006,10,23,11,38,10.10
2006,10,23,11,39,10.10
2006,10,23,11,40,10.10
2006,10,23,11,41,10.10
2006,10,23,11,42,10.10
2006,10,23,11,43,10.20
2006,10,23,11,44,10.20
2006,10,23,11,45,10.20
2006,10,23,11,46,10.30
2006,10,23,11,47,10.30
2006,10,23,11,48,10.40
2006,10,23,11,49,10.40
2006,10,23,11,50,10.40
2006,10,23,11,51,10.50
2006,10,23,11,52,10.60
2006,10,23,11,53,10.60
2006,10,23,11,54,10.70
2006,10,23,11,55,10.70
2006,10,23,11,56,10.80
2006,10,23,11,57,10.90
2006,10,23,11,58,10.90
2006,10,23,11,59,10.90
2006,10,23,12,00,11.00
2006,10,23,12,01,11.10
2006,10,23,12,02,11.10
2006,10,23,12,03,11.10
2006,10,23,12,04,11.10
2006,10,23,12,05,11.20
2006,10,23,12,06,11.30
2006,10,23,12,07,11.30
2006,10,23,12,08,11.40
2006,10,23,12,09,11.40
2006,10,23,12,10,11.40
2006,10,23,12,11,11.50
2006,10,23,12,12,11.60
2006,10,23,12,13,11.60
2006,10,23,12,14,11.60
2006,10,23,12,15,11.50
2006,10,23,12,16,11.40
2006,10,23,12,17,11.40
2006,10,23,12,18,11.40
2006,10,23,12,19,11.40
2006,10,23,12,20,11.40
2006,10,23,12,21,11.40
2006,10,23,12,22,11.40
2006,10,23,12,23,11.40
2006,10,23,12,24,11.40
2006,10,23,12,25,11.40
2006,10,23,12,26,11.50
2006,10,23,12,27,11.40
2006,10,23,12,28,11.40
2006,10,23,12,29,11.40
2006,10,23,12,30,11.40
2006,10,23,12,31,11.40
2006,10,23,12,32,11.40
2006,10,23,12,33,11.40
2006,10,23,12,34,11.40
2006,10,23,12,35,11.40
2006,10,23,12,36,11.40
2006,10,23,12,37,11.40
2006,10,23,12,38,11.40
2006,10,23,12,39,11.50
2006,10,23,12,40,11.60
2006,10,23,12,41,11.60
2006,10,23,12,42,11.60
2006,10,23,12,43,11.60
2006,10,23,12,44,11.60
2006,10,23,12,45,11.60
2006,10,23,12,46,11.70
2006,10,23,12,47,11.70
2006,10,23,12,48,11.70
2006,10,23,12,49,11.80
2006,10,23,12,50,11.80
2006,10,23,12,51,11.80
2006,10,23,12,52,11.90
2006,10,23,12,53,11.90
2006,10,23,12,54,11.80
2006,10,23,12,55,11.80
2006,10,23,12,56,11.80
2006,10,23,12,57,11.90
2006,10,23,12,58,12.00
2006,10,23,12,59,12.00
2006,10,23,13,00,12.10
2006,10,23,13,01,12.10
2006,10,23,13,02,12.10
2006,10,23,13,03,12.10
2006,10,23,13,04,12.10
2006,10,23,13,05,12.10
2006,10,23,13,06,12.10
2006,10,23,13,07,12.10
2006,10,23,13,08,12.10
2006,10,23,13,09,12.10
2006,10,23,13,10,12.10
2006,10,23,13,11,12.10
2006,10,23,13,12,12.20
2006,10,23,13,13,12.20
2006,10,23,13,14,12.20
2006,10,23,13,15,12.30
2006,10,23,13,16,12.30
2006,10,23,13,17,12.30
2006,10,23,13,18,12.30
2006,10,23,13,19,12.30
2006,10,23,13,20,12.30
2006,10,23,13,21,12.30
2006,10,23,13,22,12.30
2006,10,23,13,23,12.20
2006,10,23,13,24,12.20
2006,10,23,13,25,12.10
2006,10,23,13,26,12.10
2006,10,23,13,27,12.10
2006,10,23,13,28,12.10
2006,10,23,13,29,12.10
2006,10,23,13,30,12.10
2006,10,23,13,31,12.00
2006,10,23,13,32,11.90
2006,10,23,13,33,11.80
2006,10,23,13,34,11.80
2006,10,23,13,35,11.70
2006,10,23,13,36,11.60
2006,10,23,13,37,11.60
2006,10,23,13,38,11.60
2006,10,23,13,39,11.60
2006,10,23,13,40,11.60
2006,10,23,13,41,11.60
2006,10,23,13,42,11.60
2006,10,23,13,43,11.60
2006,10,23,13,44,11.60
2006,10,23,13,45,11.50
2006,10,23,13,46,11.40
2006,10,23,13,47,11.40
2006,10,23,13,48,11.60
2006,10,23,13,49,11.60
2006,10,23,13,50,11.50
2006,10,23,13,51,11.40
2006,10,23,13,52,11.40
2006,10,23,13,53,11.40
2006,10,23,13,54,11.40
2006,10,23,13,55,11.40
2006,10,23,13,56,11.40
2006,10,23,13,57,11.40
2006,10,23,13,58,11.50
2006,10,23,13,59,11.60
2006,10,23,14,00,11.60
2006,10,23,14,01,11.60
2006,10,23,14,02,11.60
2006,10,23,14,03,11.60
2006,10,23,14,04,11.60
2006,10,23,14,05,11.60
2006,10,23,14,06,11.60
2006,10,23,14,07,11.60
2006,10,23,14,08,11.60
2006,10,23,14,09,11.60
2006,10,23,14,10,11.70
2006,10,23,14,11,11.60
2006,10,23,14,12,11.60
2006,10,23,14,13,11.60
2006,10,23,14,14,11.60
2006,10,23,14,15,11.60
2006,10,23,14,16,11.60
2006,10,23,14,17,11.60
2006,10,23,14,18,11.50
2006,10,23,14,19,11.50
2006,10,23,14,20,11.50
2006,10,23,14,21,11.40
2006,10,23,14,22,11.40
2006,10,23,14,23,11.40
2006,10,23,14,24,11.30
2006,10,23,14,25,11.30
2006,10,23,14,26,11.30
2006,10,23,14,27,11.30
2006,10,23,14,28,11.30
2006,10,23,14,29,11.30
2006,10,23,14,30,11.30
2006,10,23,14,31,11.20
2006,10,23,14,32,11.20
2006,10,23,14,33,11.20
2006,10,23,14,34,11.10
2006,10,23,14,35,11.10
2006,10,23,14,36,11.10
2006,10,23,14,37,11.10
2006,10,23,14,38,11.10
2006,10,23,14,39,11.10
2006,10,23,14,40,11.10
2006,10,23,14,41,11.10
2006,10,23,14,42,11.10
2006,10,23,14,43,11.10
2006,10,23,14,44,11.10
2006,10,23,14,45,11.10
2006,10,23,14,46,11.10
2006,10,23,14,47,11.10
2006,10,23,14,48,11.10
2006,10,23,14,49,11.10
2006,10,23,14,50,11.10
2006,10,23,14,51,11.00
2006,10,23,14,52,10.90
2006,10,23,14,53,10.90
2006,10,23,14,54,10.90
2006,10,23,14,55,10.90
2006,10,23,14,56,10.90
2006,10,23,14,57,10.90
2006,10,23,14,58,10.90
2006,10,23,14,59,10.90
2006,10,23,15,00,11.00
2006,10,23,15,01,11.10
2006,10,23,15,02,11.10
2006,10,23,15,03,11.10
2006,10,23,15,04,11.10
2006,10,23,15,05,11.10
2006,10,23,15,06,11.10
2006,10,23,15,07,11.20
2006,10,23,15,08,11.20
2006,10,23,15,09,11.20
2006,10,23,15,10,11.20
2006,10,23,15,11,11.20
2006,10,23,15,12,11.20
2006,10,23,15,13,11.30
2006,10,23,15,14,11.30
2006,10,23,15,15,11.30
2006,10,23,15,16,11.40
2006,10,23,15,17,11.30
2006,10,23,15,18,11.20
2006,10,23,15,19,11.20
2006,10,23,15,20,11.20
2006,10,23,15,21,11.10
2006,10,23,15,22,11.10
2006,10,23,15,23,11.10
2006,10,23,15,24,11.10
2006,10,23,15,25,11.10
2006,10,23,15,26,11.10
2006,10,23,15,27,11.20
2006,10,23,15,28,11.20
2006,10,23,15,29,11.20
2006,10,23,15,30,11.20
2006,10,23,15,31,11.20
2006,10,23,15,32,11.20
2006,10,23,15,33,11.20
2006,10,23,15,34,11.20
2006,10,23,15,35,11.20
2006,10,23,15,36,11.20
2006,10,23,15,37,11.30
2006,10,23,15,38,11.30
2006,10,23,15,39,11.30
2006,10,23,15,40,11.40
2006,10,23,15,41,11.40
2006,10,23,15,42,11.40
2006,10,23,15,43,11.40
2006,10,23,15,44,11.40
2006,10,23,15,45,11.40
2006,10,23,15,46,11.40
2006,10,23,15,47,11.40
2006,10,23,15,48,11.40
2006,10,23,15,49,11.40
2006,10,23,15,50,11.50
2006,10,23,15,51,11.50
2006,10,23,15,52,11.40
2006,10,23,15,53,11.40
2006,10,23,15,54,11.40
2006,10,23,15,55,11.40
2006,10,23,15,56,11.60
2006,10,23,15,57,11.60
2006,10,23,15,58,11.60
2006,10,23,15,59,11.60
2006,10,23,16,00,11.60
2006,10,23,16,01,11.70
2006,10,23,16,02,11.70
2006,10,23,16,03,11.80
2006,10,23,16,04,11.80
2006,10,23,16,05,11.70
2006,10,23,16,06,11.70
2006,10,23,16,07,11.70
2006,10,23,16,08,11.80
2006,10,23,16,09,11.80
2006,10,23,16,10,11.90
2006,10,23,16,11,11.90
2006,10,23,16,12,12.00
2006,10,23,16,13,12.00
2006,10,23,16,14,12.00
2006,10,23,16,15,12.00
2006,10,23,16,16,12.00
2006,10,23,16,17,11.90
2006,10,23,16,18,11.90
2006,10,23,16,19,11.80
2006,10,23,16,20,11.80
2006,10,23,16,21,11.80
2006,10,23,16,22,11.70
2006,10,23,16,23,11.70
2006,10,23,16,24,11.60
2006,10,23,16,25,11.60
2006,10,23,16,26,11.60
2006,10,23,16,27,11.60
2006,10,23,16,28,11.50
2006,10,23,16,29,11.40
2006,10,23,16,30,11.30
2006,10,23,16,31,11.30
2006,10,23,16,32,11.30
2006,10,23,16,33,11.20
2006,10,23,16,34,11.20
2006,10,23,16,35,11.20
2006,10,23,16,36,11.20
2006,10,23,16,37,11.20
2006,10,23,16,38,11.20
2006,10,23,16,39,11.20
2006,10,23,16,40,11.20
2006,10,23,16,41,11.20
2006,10,23,16,42,11.20
2006,10,23,16,43,11.10
2006,10,23,16,44,11.10
2006,10,23,16,45,11.10
2006,10,23,16,46,11.20
2006,10,23,16,47,11.20
2006,10,23,16,48,11.30
2006,10,23,16,49,11.30
2006,10,23,16,50,11.40
2006,10,23,16,51,11.40
2006,10,23,16,52,11.60
2006,10,23,16,53,11.60
2006,10,23,16,54,11.60
2006,10,23,16,55,11.60
2006,10,23,16,56,11.60
2006,10,23,16,57,11.60
2006,10,23,16,58,11.70
2006,10,23,16,59,11.70
2006,10,23,17,00,11.60
2006,10,23,17,01,11.60
2006,10,23,17,02,11.60
2006,10,23,17,03,11.60
2006,10,23,17,04,11.60
2006,10,23,17,05,11.60
2006,10,23,17,06,11.60
2006,10,23,17,07,11.60
2006,10,23,17,08,11.60
2006,10,23,17,09,11.60
2006,10,23,17,10,11.60
2006,10,23,17,11,11.60
2006,10,23,17,12,11.60
2006,10,23,17,13,11.60
2006,10,23,17,14,11.60
2006,10,23,17,15,11.50
2006,10,23,17,16,11.40
2006,10,23,17,17,11.40
2006,10,23,17,18,11.40
2006,10,23,17,19,11.40
2006,10,23,17,20,11.30
2006,10,23,17,21,11.30
2006,10,23,17,22,11.20
2006,10,23,17,23,11.20
2006,10,23,17,24,11.10
2006,10,23,17,25,11.10
2006,10,23,17,26,11.10
2006,10,23,17,27,11.10
2006,10,23,17,28,11.10
2006,10,23,17,29,11.10
2006,10,23,17,30,11.10
2006,10,23,17,31,11.10
2006,10,23,17,32,11.00
2006,10,23,17,33,11.10
2006,10,23,17,34,11.10
2006,10,23,17,35,11.00
2006,10,23,17,36,10.90
2006,10,23,17,37,10.90
2006,10,23,17,38,10.90
2006,10,23,17,39,10.90
2006,10,23,17,40,10.90
2006,10,23,17,41,10.90
2006,10,23,17,42,10.90
2006,10,23,17,43,10.90
2006,10,23,17,44,10.80
2006,10,23,17,45,10.80
2006,10,23,17,46,10.80
2006,10,23,17,47,10.70
2006,10,23,17,48,10.70
2006,10,23,17,49,10.60